BAW830D EGLL-EIDW

Flight info

Callsign BAW830D
Flight time 0h 48m
Altitude 24000
Route CPT L9 DIDZA N14 BIBPE/N0432F340 DCT OKTAD DCT MEDOG DCT KRAGY DCT PEMOB DCT LEMGU M17 VATRY VATRY4L
Aircraft A20N/M-SDE2E3FGHIRWXY/LB1

Departure

Time 2026-05-01 14:17
Airport London Heathrow Airport (EGLL)

Arrival

Time 2026-05-01 15:05
Airport Dublin Airport (EIDW)
Time Latitude Longitude Altitude Speed Heading
2026-05-01 13:12 51.47398 -0.48759 93 ft 0 kts 180°
2026-05-01 14:03 51.47403 -0.48759 93 ft 2 kts 180°
2026-05-01 14:03 51.47418 -0.48759 93 ft 2 kts 180°
2026-05-01 14:03 51.47433 -0.48759 93 ft 2 kts 180°
2026-05-01 14:03 51.47448 -0.48759 93 ft 2 kts 176°
2026-05-01 14:04 51.47458 -0.48761 93 ft 0 kts 171°
2026-05-01 14:04 51.47472 -0.48768 93 ft 2 kts 142°
2026-05-01 14:04 51.47482 -0.48786 93 ft 2 kts 115°
2026-05-01 14:04 51.47485 -0.48801 93 ft 1 kts 96°
2026-05-01 14:05 51.47485 -0.48816 93 ft 1 kts 89°
2026-05-01 14:06 51.47485 -0.48817 93 ft 0 kts 90°
2026-05-01 14:06 51.47485 -0.48816 93 ft 0 kts 90°
2026-05-01 14:10 51.47485 -0.48805 93 ft 1 kts 90°
2026-05-01 14:10 51.47485 -0.48740 93 ft 15 kts 91°
2026-05-01 14:11 51.47485 -0.48528 93 ft 17 kts 102°
2026-05-01 14:11 51.47262 -0.48477 93 ft 16 kts 180°
2026-05-01 14:11 51.47143 -0.48473 94 ft 18 kts 180°
2026-05-01 14:12 51.47014 -0.48471 94 ft 18 kts 179°
2026-05-01 14:12 51.46890 -0.48469 94 ft 16 kts 181°
2026-05-01 14:12 51.46817 -0.48469 94 ft 0 kts 180°
2026-05-01 14:14 51.46777 -0.48472 94 ft 12 kts 193°
2026-05-01 14:15 51.46740 -0.48606 94 ft 16 kts 270°
2026-05-01 14:15 51.46697 -0.48746 94 ft 15 kts 188°
2026-05-01 14:15 51.46592 -0.48771 94 ft 15 kts 200°
2026-05-01 14:15 51.46492 -0.48751 94 ft 14 kts 125°
2026-05-01 14:16 51.46478 -0.48596 94 ft 14 kts 89°
2026-05-01 14:16 51.46479 -0.48406 94 ft 33 kts 89°
2026-05-01 14:16 51.46481 -0.47616 94 ft 106 kts 91°
2026-05-01 14:16 51.46489 -0.46089 95 ft 164 kts 90°
2026-05-01 14:17 51.46509 -0.44135 470 ft 181 kts 92°
2026-05-01 14:17 51.46513 -0.42108 1141 ft 182 kts 101°
2026-05-01 14:17 51.45997 -0.40442 1936 ft 168 kts 142°
2026-05-01 14:17 51.44944 -0.39699 2446 ft 172 kts 178°
2026-05-01 14:18 51.43774 -0.40180 2877 ft 186 kts 213°
2026-05-01 14:18 51.42911 -0.41818 3321 ft 203 kts 235°
2026-05-01 14:18 51.42062 -0.43708 3765 ft 218 kts 230°
2026-05-01 14:18 51.41388 -0.45035 3994 ft 235 kts 229°
2026-05-01 14:19 51.39927 -0.47831 4680 ft 257 kts 228°
2026-05-01 14:19 51.38766 -0.50045 5489 ft 262 kts 228°
2026-05-01 14:19 51.37627 -0.52293 6389 ft 265 kts 234°
2026-05-01 14:19 51.36961 -0.55040 7246 ft 273 kts 261°
2026-05-01 14:20 51.37159 -0.58076 8097 ft 283 kts 284°
2026-05-01 14:20 51.38684 -0.64006 9050 ft 292 kts 291°
2026-05-01 14:20 51.39518 -0.66938 9493 ft 300 kts 291°
2026-05-01 14:21 51.40378 -0.69964 10413 ft 299 kts 290°
2026-05-01 14:21 51.41241 -0.72990 11051 ft 309 kts 291°
2026-05-01 14:21 51.42160 -0.76234 11478 ft 327 kts 291°
2026-05-01 14:22 51.44228 -0.83044 12491 ft 353 kts 294°
2026-05-01 14:22 51.45343 -0.86569 13231 ft 357 kts 294°
2026-05-01 14:22 51.46468 -0.90143 13979 ft 360 kts 293°
2026-05-01 14:22 51.47595 -0.93743 14713 ft 364 kts 293°
2026-05-01 14:23 51.48718 -0.97352 15413 ft 368 kts 293°
2026-05-01 14:23 51.49870 -1.01063 16117 ft 371 kts 293°
2026-05-01 14:23 51.51035 -1.04829 16805 ft 375 kts 293°
2026-05-01 14:23 51.52188 -1.08563 17456 ft 379 kts 293°
2026-05-01 14:24 51.53359 -1.12366 18120 ft 382 kts 293°
2026-05-01 14:24 51.54536 -1.16197 18750 ft 386 kts 293°
2026-05-01 14:24 51.55734 -1.20101 19377 ft 390 kts 293°
2026-05-01 14:24 51.56939 -1.24035 19987 ft 394 kts 293°
2026-05-01 14:25 51.58154 -1.28007 20598 ft 397 kts 293°
2026-05-01 14:25 51.59360 -1.31955 21182 ft 401 kts 293°
2026-05-01 14:25 51.60591 -1.35994 21762 ft 404 kts 293°
2026-05-01 14:25 51.61833 -1.40075 22326 ft 408 kts 293°
2026-05-01 14:26 51.63079 -1.44179 22879 ft 411 kts 293°
2026-05-01 14:26 51.65615 -1.52551 23930 ft 418 kts 293°
2026-05-01 14:26 51.66881 -1.56742 24112 ft 419 kts 293°
2026-05-01 14:27 51.68166 -1.61000 24113 ft 419 kts 293°
2026-05-01 14:27 51.69390 -1.65248 24111 ft 417 kts 288°
2026-05-01 14:27 51.70313 -1.69646 24117 ft 413 kts 281°
2026-05-01 14:28 51.71242 -1.78730 24122 ft 409 kts 272°
2026-05-01 14:28 51.71573 -1.83235 24124 ft 410 kts 275°
2026-05-01 14:28 51.72068 -1.87796 24123 ft 411 kts 278°
2026-05-01 14:28 51.72702 -1.92296 24125 ft 412 kts 280°
2026-05-01 14:29 51.73372 -1.96824 24123 ft 412 kts 280°
2026-05-01 14:29 51.74036 -2.01284 24125 ft 412 kts 280°
2026-05-01 14:30 51.76033 -2.14775 24126 ft 413 kts 280°
2026-05-01 14:30 51.76700 -2.19317 24123 ft 413 kts 280°
2026-05-01 14:30 51.77355 -2.23796 24124 ft 413 kts 280°
2026-05-01 14:31 51.78679 -2.32886 24121 ft 413 kts 280°
2026-05-01 14:31 51.79332 -2.37399 24118 ft 413 kts 280°
2026-05-01 14:31 51.79982 -2.41895 24117 ft 413 kts 280°
2026-05-01 14:31 51.80635 -2.46435 24117 ft 413 kts 280°
2026-05-01 14:32 51.81277 -2.50908 24113 ft 413 kts 279°
2026-05-01 14:32 51.81925 -2.55437 24112 ft 412 kts 279°
2026-05-01 14:32 51.82551 -2.59970 24113 ft 412 kts 279°
2026-05-01 14:32 51.83167 -2.64509 24112 ft 412 kts 279°
2026-05-01 14:33 51.83776 -2.69017 24110 ft 412 kts 278°
2026-05-01 14:33 51.84390 -2.73585 24107 ft 412 kts 278°
2026-05-01 14:33 51.84996 -2.78102 24114 ft 413 kts 278°
2026-05-01 14:33 51.85611 -2.82697 24110 ft 413 kts 278°
2026-05-01 14:34 51.86216 -2.87223 24111 ft 413 kts 278°
2026-05-01 14:34 51.86820 -2.91755 24111 ft 413 kts 278°
2026-05-01 14:34 51.87431 -2.96342 24109 ft 413 kts 278°
2026-05-01 14:34 51.88038 -3.00915 24112 ft 413 kts 278°
2026-05-01 14:35 51.88636 -3.05437 24112 ft 413 kts 278°
2026-05-01 14:35 51.89233 -3.09976 24115 ft 412 kts 277°
2026-05-01 14:35 51.89831 -3.14532 24114 ft 412 kts 278°
2026-05-01 14:35 51.90428 -3.19102 24110 ft 412 kts 278°
2026-05-01 14:36 51.91025 -3.23676 24118 ft 412 kts 278°
2026-05-01 14:36 51.91612 -3.28185 24117 ft 412 kts 277°
2026-05-01 14:36 51.92209 -3.32793 24115 ft 413 kts 278°
2026-05-01 14:36 51.92797 -3.37344 24118 ft 413 kts 277°
2026-05-01 14:37 51.93378 -3.41854 24118 ft 413 kts 277°
2026-05-01 14:37 51.93967 -3.46447 24121 ft 413 kts 277°
2026-05-01 14:37 51.94549 -3.51002 24118 ft 413 kts 277°
2026-05-01 14:37 51.95131 -3.55565 24118 ft 413 kts 277°
2026-05-01 14:38 51.95715 -3.60144 24118 ft 413 kts 277°
2026-05-01 14:38 51.96293 -3.64709 24121 ft 413 kts 277°
2026-05-01 14:38 51.96868 -3.69254 24120 ft 412 kts 276°
2026-05-01 14:38 51.97444 -3.73840 24123 ft 413 kts 276°
2026-05-01 14:39 51.98012 -3.78382 24123 ft 413 kts 276°
2026-05-01 14:39 51.98580 -3.82923 24122 ft 412 kts 276°
2026-05-01 14:39 51.99149 -3.87493 24121 ft 413 kts 276°
2026-05-01 14:39 51.99714 -3.92042 24124 ft 412 kts 276°
2026-05-01 14:40 52.00276 -3.96593 24127 ft 412 kts 276°
2026-05-01 14:40 52.00841 -4.01160 24127 ft 412 kts 276°
2026-05-01 14:40 52.01402 -4.05725 24131 ft 412 kts 276°
2026-05-01 14:40 52.01960 -4.10275 24131 ft 412 kts 276°
2026-05-01 14:41 52.02515 -4.14827 24127 ft 411 kts 276°
2026-05-01 14:41 52.03065 -4.19351 24133 ft 411 kts 276°
2026-05-01 14:41 52.03627 -4.23987 24134 ft 411 kts 276°
2026-05-01 14:41 52.04173 -4.28515 24132 ft 412 kts 276°
2026-05-01 14:42 52.04719 -4.33046 24131 ft 412 kts 275°
2026-05-01 14:42 52.05275 -4.37667 24131 ft 412 kts 275°
2026-05-01 14:42 52.05817 -4.42208 24131 ft 412 kts 275°
2026-05-01 14:42 52.06360 -4.46760 24134 ft 412 kts 275°
2026-05-01 14:43 52.06908 -4.51379 24138 ft 413 kts 275°
2026-05-01 14:43 52.07450 -4.55953 24136 ft 413 kts 275°
2026-05-01 14:43 52.07994 -4.60569 24138 ft 413 kts 275°
2026-05-01 14:43 52.08529 -4.65131 24137 ft 413 kts 274°
2026-05-01 14:44 52.09059 -4.69663 24140 ft 412 kts 274°
2026-05-01 14:44 52.10126 -4.78817 24139 ft 412 kts 274°
2026-05-01 14:44 52.10671 -4.83422 24137 ft 412 kts 274°
2026-05-01 14:45 52.11214 -4.88025 24144 ft 412 kts 274°
2026-05-01 14:45 52.12265 -4.97128 24142 ft 413 kts 274°
2026-05-01 14:45 52.12791 -5.01732 24142 ft 414 kts 274°
2026-05-01 14:46 52.13311 -5.06311 24139 ft 414 kts 274°
2026-05-01 14:46 52.15113 -5.15250 24118 ft 430 kts 301°
2026-05-01 14:46 52.17280 -5.18644 24123 ft 435 kts 324°
2026-05-01 14:47 52.19917 -5.20925 24094 ft 430 kts 332°
2026-05-01 14:47 52.22603 -5.23016 23471 ft 433 kts 332°
2026-05-01 14:47 52.25349 -5.25168 22578 ft 441 kts 332°
2026-05-01 14:48 52.30782 -5.29550 21479 ft 435 kts 331°
2026-05-01 14:48 52.33526 -5.31583 21132 ft 428 kts 340°
2026-05-01 14:48 52.39160 -5.33913 20631 ft 411 kts 347°
2026-05-01 14:49 52.44703 -5.36014 20130 ft 409 kts 346°
2026-05-01 14:49 52.50168 -5.38400 19499 ft 404 kts 340°
2026-05-01 14:50 52.53728 -5.40553 18482 ft 411 kts 338°
2026-05-01 14:50 52.60813 -5.45020 17082 ft 405 kts 338°
2026-05-01 14:51 52.63421 -5.46634 16606 ft 402 kts 338°
2026-05-01 14:51 52.68595 -5.49819 15664 ft 394 kts 338°
2026-05-01 14:52 52.73668 -5.52933 14699 ft 388 kts 338°
2026-05-01 14:52 52.76183 -5.54479 14226 ft 384 kts 338°
2026-05-01 14:52 52.81138 -5.57528 13281 ft 378 kts 338°
2026-05-01 14:53 52.83587 -5.59037 12807 ft 375 kts 338°
2026-05-01 14:53 52.86019 -5.60541 12366 ft 371 kts 338°
2026-05-01 14:53 52.88415 -5.62020 11976 ft 365 kts 338°
2026-05-01 14:53 52.90776 -5.63479 11612 ft 359 kts 338°
2026-05-01 14:54 52.93095 -5.64916 11290 ft 353 kts 338°
2026-05-01 14:54 52.95358 -5.66327 10966 ft 346 kts 337°
2026-05-01 14:54 52.97558 -5.67706 10496 ft 334 kts 337°
2026-05-01 14:54 52.99688 -5.69040 9926 ft 324 kts 337°
2026-05-01 14:55 53.01773 -5.70345 9310 ft 315 kts 337°
2026-05-01 14:55 53.03777 -5.71597 8810 ft 304 kts 337°
2026-05-01 14:55 53.05727 -5.72814 8348 ft 292 kts 337°
2026-05-01 14:55 53.07489 -5.73914 7995 ft 285 kts 337°
2026-05-01 14:56 53.09349 -5.75078 7642 ft 285 kts 337°
2026-05-01 14:56 53.11193 -5.76230 7315 ft 282 kts 337°
2026-05-01 14:56 53.13035 -5.77374 7017 ft 281 kts 337°
2026-05-01 14:56 53.14842 -5.78498 6760 ft 279 kts 337°
2026-05-01 14:57 53.16645 -5.79623 6512 ft 277 kts 337°
2026-05-01 14:57 53.20244 -5.81878 6010 ft 274 kts 337°
2026-05-01 14:57 53.22012 -5.82990 5711 ft 271 kts 337°
2026-05-01 14:58 53.23760 -5.84089 5381 ft 269 kts 337°
2026-05-01 14:58 53.25520 -5.85197 5023 ft 268 kts 337°
2026-05-01 14:58 53.27246 -5.86286 4702 ft 265 kts 337°
2026-05-01 14:58 53.28969 -5.87373 4357 ft 263 kts 337°
2026-05-01 14:59 53.30673 -5.88448 4049 ft 261 kts 337°
2026-05-01 14:59 53.32367 -5.89518 3762 ft 256 kts 337°
2026-05-01 14:59 53.34004 -5.90551 3383 ft 248 kts 336°
2026-05-01 14:59 53.35570 -5.91541 3049 ft 236 kts 336°
2026-05-01 15:00 53.38434 -5.93330 3000 ft 214 kts 336°
2026-05-01 15:00 53.39753 -5.94415 2970 ft 208 kts 313°
2026-05-01 15:00 53.40483 -5.96396 2982 ft 200 kts 279°
2026-05-01 15:01 53.40654 -5.98702 2992 ft 201 kts 276°
2026-05-01 15:01 53.40910 -6.01006 2961 ft 200 kts 279°
2026-05-01 15:01 53.41213 -6.03229 2806 ft 191 kts 281°
2026-05-01 15:01 53.41513 -6.05352 2679 ft 181 kts 281°
2026-05-01 15:02 53.41786 -6.07319 2481 ft 174 kts 279°
2026-05-01 15:02 53.41947 -6.08675 2193 ft 179 kts 278°
2026-05-01 15:02 53.42102 -6.11359 1880 ft 168 kts 264°
2026-05-01 15:02 53.42045 -6.13247 1672 ft 156 kts 266°
2026-05-01 15:03 53.42038 -6.15047 1476 ft 149 kts 266°
2026-05-01 15:03 53.41997 -6.16702 1270 ft 140 kts 257°
2026-05-01 15:03 53.41798 -6.18289 1049 ft 139 kts 261°
2026-05-01 15:03 53.41786 -6.19907 864 ft 139 kts 269°
2026-05-01 15:04 53.41839 -6.21535 742 ft 142 kts 270°
2026-05-01 15:04 53.41922 -6.23163 540 ft 140 kts 274°
2026-05-01 15:04 53.42013 -6.24769 312 ft 138 kts 272°
2026-05-01 15:04 53.42097 -6.26342 253 ft 116 kts 273°
2026-05-01 15:05 53.42148 -6.27215 252 ft 50 kts 275°
2026-05-01 15:05 53.42183 -6.27693 252 ft 32 kts 282°
2026-05-01 15:05 53.42264 -6.28023 252 ft 29 kts 299°
2026-05-01 15:05 53.42341 -6.28133 252 ft 12 kts 13°
2026-05-01 15:06 53.42365 -6.28003 252 ft 13 kts 95°
2026-05-01 15:06 53.42355 -6.27845 252 ft 14 kts 96°
2026-05-01 15:06 53.42349 -6.27676 252 ft 15 kts 92°
2026-05-01 15:06 53.42335 -6.27467 252 ft 19 kts 96°
2026-05-01 15:07 53.42319 -6.27240 252 ft 19 kts 98°
2026-05-01 15:07 53.42306 -6.27011 252 ft 19 kts 90°
2026-05-01 15:07 53.42298 -6.26789 252 ft 19 kts 96°
2026-05-01 15:07 53.42286 -6.26564 252 ft 19 kts 96°
2026-05-01 15:08 53.42277 -6.26341 252 ft 19 kts 93°
2026-05-01 15:08 53.42267 -6.26117 252 ft 19 kts 99°
2026-05-01 15:08 53.42250 -6.25896 252 ft 19 kts 96°
2026-05-01 15:08 53.42233 -6.25674 252 ft 19 kts 98°
2026-05-01 15:09 53.42219 -6.25451 252 ft 18 kts 88°
2026-05-01 15:09 53.42215 -6.25239 252 ft 17 kts 96°
2026-05-01 15:09 53.42202 -6.25030 252 ft 18 kts 96°
2026-05-01 15:09 53.42192 -6.24816 252 ft 18 kts 92°
2026-05-01 15:10 53.42180 -6.24601 252 ft 18 kts 97°
2026-05-01 15:10 53.42202 -6.24209 252 ft 16 kts 32°
2026-05-01 15:10 53.42280 -6.24132 252 ft 10 kts 27°
2026-05-01 15:11 53.42342 -6.24067 252 ft 7 kts 40°
2026-05-01 15:11 53.42413 -6.24119 252 ft 4 kts 316°
2026-05-01 15:11 53.42419 -6.24129 252 ft 0 kts 315°
2026-05-01 15:12 53.42420 -6.24131 252 ft 0 kts 315°